This is the latest recevied weather packets stored in our database for station/object SALT. If no packets are shown the sender has not sent any weather packets the latest 10 day(s).
| Time | Temp. | Humidity | Pressure | Rain* | Wind** | Luminosity | Snow |
|---|---|---|---|---|---|---|---|
| 1778282774 | 12.78° C | 43% | 1021.7 hPa | 0 mm | - | - | - |
| 1778282172 | 12.22° C | 43% | 1021.7 hPa | 0 mm | - | - | - |
| 1778280964 | 12.22° C | 44% | 1021.7 hPa | 0 mm | - | - | - |
| 1778280362 | 12.22° C | 43% | 1021.8 hPa | 0 mm | - | - | - |
| 1778279760 | 12.78° C | 40% | 1021.6 hPa | 0 mm | - | - | - |
| 1778279156 | 12.78° C | 42% | 1021.6 hPa | 0 mm | - | - | - |
| 1778278554 | 12.78° C | 41% | 1021.5 hPa | 0 mm | - | - | - |
| 1778277952 | 13.33° C | 42% | 1021.7 hPa | 0 mm | - | - | - |
| 1778277346 | 13.33° C | 41% | 1021.5 hPa | 0 mm | - | - | - |
| 1778276744 | 13.33° C | 43% | 1021.6 hPa | 0 mm | - | - | - |
| 1778276142 | 13.33° C | 42% | 1021.6 hPa | 0 mm | - | - | - |
| 1778275539 | 13.89° C | 44% | 1021.6 hPa | 0 mm | - | - | - |
| 1778274936 | 13.89° C | 43% | 1021.5 hPa | 0 mm | - | - | - |
| 1778274334 | 13.33° C | 42% | 1021.5 hPa | 0 mm | - | - | - |
| 1778273768 | 13.33° C | 42% | 1021.6 hPa | 0 mm | - | - | - |
| 1778273729 | 13.33° C | 42% | 1021.6 hPa | 0 mm | - | - | - |
| 1778273126 | 13.89° C | 42% | 1021.6 hPa | 0 mm | - | - | - |
| 1778272523 | 13.33° C | 42% | 1021.6 hPa | 0 mm | - | - | - |
| 1778271921 | 13.33° C | 42% | 1021.5 hPa | 0 mm | - | - | - |
| 1778271318 | 13.33° C | 43% | 1021.6 hPa | 0 mm | - | - | - |
| 1778270716 | 13.33° C | 43% | 1021.6 hPa | 0 mm | - | - | - |
| 1778270110 | 13.33° C | 44% | 1021.5 hPa | 0 mm | - | - | - |
| 1778269507 | 12.78° C | 43% | 1021.4 hPa | 0 mm | - | - | - |
| 1778268907 | 12.78° C | 44% | 1021.3 hPa | 0 mm | - | - | - |
| 1778268302 | 12.78° C | 46% | 1021.4 hPa | 0 mm | - | - | - |
* Rain latest 24 hours (hover to see other rain measurements)
** Current wind speed in m/s (hover to see current wind gust speed)